Manchester, NH

9:39 AM EST on January 22, 2018 (GMT -0500)
Manchester

Weather History for KMHT - August, 2014

Change the Weather History Date:

Sunday, August 17, 2014

  Actual Average Record
Temperature  
Mean Temperature 68 °F 71 °F  
Max Temperature 77 °F 81 °F 96 °F (1970)
Min Temperature 60 °F 61 °F 45 °F (1929)
Degree Days  
Heating Degree Days 0 0  
Month to date heating degree days 0  
Since 1 June heating degree days 63  
Since 1 July heating degree days 5  
Cooling Degree Days 2 6  
Month to date cooling degree days 123  
Year to date cooling degree days 512  
Since 1 June cooling degree days 482  
Growing Degree Days 18 (Base 50)    
Moisture  
Dew Point 56 °F    
Average Humidity 67    
Maximum Humidity 90    
Minimum Humidity 44    
Precipitation  
Precipitation 0.00 in 0.11 in 0.90 in (1886)
Month to date precipitation 2.13  
Year to date precipitation 27.76  
Snow  
Snow 0.00 in - - ()
Month to date snowfall  
Since 1 July snowfall  
Snow Depth -    
Sea Level Pressure  
Sea Level Pressure 29.84 in    
Wind  
Wind Speed 6 mph (WSW)    
Max Wind Speed 15 mph    
Max Gust Speed 24 mph    
Visibility 10 miles    
Events      
T = Trace of Precipitation, MM = Missing Value Source: NWS Daily Summary

Daily Weather History Graph

Daily Weather History Graph

Search for Another Location

Airport or City:

Trip Planner

Search our weather history database for the weather conditions in past years. The results will help you decide how hot, cold, wet, or windy it might be!

Date:

Astronomy

Aug. 17, 2014 Rise Set
Actual Time 5:53 AM EDT 7:44 PM EDT
Civil Twilight 5:23 AM EDT 8:15 PM EDT
Nautical Twilight 4:46 AM EDT 8:52 PM EDT
Astronomical Twilight 4:06 AM EDT 9:32 PM EDT
Moon 11:58 PM EDT (8/17) 1:48 PM EDT (8/17)
Length of Visible Light 14h 51m
Length of Day
13h 50m
Waning Gibbous, 48% of the Moon is Illuminated
Aug 17
Waning Gibbous
Aug 25
New
Sep 2
First Quarter
Sep 8
Full
Sep 15
Last Quarter

Hourly Weather History & Observations

Time (EDT) Temp. Dew Point Humidity Pressure Visibility Wind Dir Wind Speed Gust Speed Precip Events Conditions
12:53 AM 64.9 °F 54.0 °F 68% 29.91 in 10.0 mi South 5.8 mph - N/A   Mostly Cloudy
1:53 AM 64.0 °F 55.0 °F 73% 29.91 in 10.0 mi SW 3.5 mph - 0.00 in   Overcast
2:53 AM 62.6 °F 57.2 °F 82% 29.85 in 10.0 mi SE 4.6 mph - N/A   Overcast
3:53 AM 62.1 °F 55.9 °F 80% 29.86 in 10.0 mi South 5.8 mph - N/A   Overcast
4:53 AM 61.0 °F 55.9 °F 83% 29.85 in 10.0 mi South 4.6 mph - N/A   Partly Cloudy
5:53 AM 60.1 °F 55.9 °F 86% 29.86 in 10.0 mi South 4.6 mph - N/A   Scattered Clouds
6:53 AM 60.1 °F 57.0 °F 90% 29.85 in 10.0 mi SSW 3.5 mph - N/A   Mostly Cloudy
7:53 AM 62.1 °F 57.9 °F 86% 29.85 in 10.0 mi South 4.6 mph - N/A   Mostly Cloudy
8:53 AM 64.0 °F 57.0 °F 78% 29.84 in 10.0 mi SW 4.6 mph - N/A   Mostly Cloudy
9:53 AM 68.0 °F 57.9 °F 70% 29.83 in 10.0 mi South 3.5 mph - N/A   Mostly Cloudy
10:53 AM 72.0 °F 57.0 °F 59% 29.83 in 10.0 mi Variable 3.5 mph - N/A   Mostly Cloudy
11:53 AM 73.9 °F 57.9 °F 57% 29.82 in 10.0 mi NNW 12.7 mph - N/A   Mostly Cloudy
12:53 PM 75.0 °F 57.9 °F 55% 29.80 in 10.0 mi Variable 4.6 mph - N/A   Mostly Cloudy
1:53 PM 75.0 °F 57.0 °F 53% 29.81 in 10.0 mi NNW 15.0 mph 21.9 mph N/A   Mostly Cloudy
2:53 PM 73.9 °F 57.9 °F 57% 29.81 in 10.0 mi WNW 9.2 mph - N/A   Mostly Cloudy
3:53 PM 75.0 °F 57.0 °F 53% 29.81 in 10.0 mi NW 9.2 mph - N/A   Mostly Cloudy
4:53 PM 75.0 °F 52.0 °F 44% 29.81 in 10.0 mi NW 13.8 mph 24.2 mph N/A   Scattered Clouds
5:53 PM 73.4 °F 53.6 °F 50% 29.79 in 10.0 mi NNW 13.8 mph - N/A   Partly Cloudy
6:53 PM 72.0 °F 52.0 °F 49% 29.83 in 10.0 mi NNW 15.0 mph - N/A   Partly Cloudy
7:53 PM 69.1 °F 53.1 °F 57% 29.85 in 10.0 mi NNW 10.4 mph - N/A   Partly Cloudy
8:53 PM 66.9 °F 54.0 °F 63% 29.86 in 10.0 mi NW 4.6 mph - N/A   Clear
9:53 PM 64.9 °F 54.0 °F 68% 29.86 in 10.0 mi Calm Calm - N/A   Clear
10:53 PM 63.0 °F 54.0 °F 72% 29.86 in 10.0 mi West 4.6 mph - N/A   Clear
11:53 PM 62.1 °F 54.0 °F 75% 29.86 in 10.0 mi West 5.8 mph - N/A   Clear